TimeGMT,TemperatureF,Dew PointF,Humidity,Sea Level PressureIn,VisibilityMPH,Wind Direction,Wind SpeedMPH,Gust SpeedMPH,PrecipitationIn,Events,Conditions,WindDirDegrees,DateUTC
12:50 AM,44.6,37.4,76,29.74,6.2,West,21.9,-,N/A,,Mostly Cloudy,270,2013-02-15 00:50:00
1:50 AM,42.8,37.4,81,29.77,6.2,SW,4.6,-,N/A,Rain,Light Rain Showers,230,2013-02-15 01:50:00
2:50 AM,45,37,66,29.78,40,West,21.9,,,Rain,Rain,260,2013-02-15 02:50:00
2:50 AM,44.6,37.4,76,29.77,6.2,West,21.9,-,N/A,,Mostly Cloudy,260,2013-02-15 02:50:00
3:50 AM,44.6,37.4,76,29.80,6.2,WSW,12.7,-,N/A,,Mostly Cloudy,250,2013-02-15 03:50:00
4:50 AM,44.6,37.4,76,29.83,6.2,WSW,12.7,-,N/A,,Mostly Cloudy,240,2013-02-15 04:50:00
5:50 AM,44,37,70,29.86,47,WSW,12.7,,,Rain,Rain,240,2013-02-15 05:50:00
5:50 AM,44.6,37.4,76,29.86,6.2,WSW,12.7,-,N/A,,Mostly Cloudy,240,2013-02-15 05:50:00
6:50 AM,44.6,37.4,76,29.86,6.2,WSW,10.4,-,N/A,,Mostly Cloudy,240,2013-02-15 06:50:00
7:50 AM,42.8,37.4,81,29.89,6.2,WSW,10.4,-,N/A,,Scattered Clouds,250,2013-02-15 07:50:00
8:50 AM,42,36,73,29.92,47,WSW,8.1,,,,Mostly Cloudy,250,2013-02-15 08:50:00
8:50 AM,41.0,35.6,81,29.92,6.2,WSW,8.1,-,N/A,,Mostly Cloudy,250,2013-02-15 08:50:00
9:50 AM,44.6,37.4,76,29.92,6.2,WSW,11.5,-,N/A,,Scattered Clouds,240,2013-02-15 09:50:00
10:50 AM,44.6,39.2,81,29.95,6.2,WSW,11.5,-,N/A,,Scattered Clouds,250,2013-02-15 10:50:00
11:50 AM,47,38,63,29.98,47,WSW,12.7,,,,Mostly Cloudy,240,2013-02-15 11:50:00
11:50 AM,46.4,39.2,76,29.98,6.2,WSW,12.7,-,N/A,,Mostly Cloudy,240,2013-02-15 11:50:00
12:50 PM,48.2,39.2,71,29.98,6.2,WSW,11.5,-,N/A,,Mostly Cloudy,250,2013-02-15 12:50:00
1:50 PM,48.2,39.2,71,29.98,6.2,West,17.3,-,N/A,,Mostly Cloudy,270,2013-02-15 13:50:00
2:50 PM,47,37,58,30.00,40,West,9.2,,,,Scattered Clouds,260,2013-02-15 14:50:00
2:50 PM,48.2,37.4,66,29.98,6.2,West,9.2,-,N/A,,Partly Cloudy,260,2013-02-15 14:50:00
3:50 PM,44.6,37.4,76,30.01,6.2,West,4.6,-,N/A,,Mostly Cloudy,260,2013-02-15 15:50:00
4:50 PM,44.6,37.4,76,30.01,6.2,SW,8.1,-,N/A,,Mostly Cloudy,230,2013-02-15 16:50:00
5:50 PM,42,34,64,30.04,22,SW,5.8,,,,Scattered Clouds,220,2013-02-15 17:50:00
5:50 PM,42.8,33.8,70,30.04,6.2,SW,5.8,-,N/A,,Mostly Cloudy,220,2013-02-15 17:50:00
6:50 PM,41.0,32.0,70,30.04,6.2,SW,4.6,-,N/A,,Partly Cloudy,220,2013-02-15 18:50:00
7:50 PM,41.0,33.8,76,30.04,6.2,SSW,6.9,-,N/A,,Mostly Cloudy,200,2013-02-15 19:50:00
8:50 PM,40,33,67,30.06,37,SSW,4.6,,,,Mostly Cloudy,210,2013-02-15 20:50:00
8:50 PM,39.2,33.8,81,30.06,6.2,SSW,4.6,-,N/A,,Mostly Cloudy,210,2013-02-15 20:50:00
9:50 PM,37.4,32.0,81,30.06,6.2,WSW,4.6,-,N/A,,Scattered Clouds,240,2013-02-15 21:50:00
10:50 PM,35.6,30.2,81,30.04,6.2,SSW,3.5,-,N/A,,Unknown,210,2013-02-15 22:50:00
11:50 PM,33.8,30.2,87,30.04,6.2,South,2.3,-,N/A,,Partly Cloudy,180,2013-02-15 23:50:00